Previsão horária em Almargem do Bispo

Hoje, 14 Junho, Segunda-feira

Tempo Temperatura Precipitação Vento Pressão Humidade
00:00 +18°C° 0 mm 1 m/s 752 mmHg 85%
01:00 +18°C° 0 mm 1 m/s 752 mmHg 85%
02:00 +18°C° 0 mm 1 m/s 752 mmHg 84%
03:00 +18°C° 0 mm 1 m/s 752 mmHg 84%
04:00 +18°C° 0 mm 1 m/s 752 mmHg 83%
05:00 +19°C° 0 mm 1 m/s 753 mmHg 85%
06:00 +21°C° 0 mm 1 m/s 753 mmHg 76%
07:00 +23°C° 0 mm 1 m/s 753 mmHg 67%
08:00 +25°C° 0 mm 1 m/s 753 mmHg 58%
09:00 +27°C° 0 mm 2 m/s 753 mmHg 53%
10:00 +28°C° 0 mm 2 m/s 753 mmHg 49%
11:00 +29°C° 0 mm 2 m/s 753 mmHg 45%
12:00 +29°C° 0 mm 3 m/s 753 mmHg 44%
13:00 +30°C° 0 mm 4 m/s 753 mmHg 44%
14:00 +30°C° 0 mm 4 m/s 752 mmHg 43%
15:00 +28°C° 0 mm 5 m/s 752 mmHg 47%
16:00 +27°C° 0 mm 5 m/s 752 mmHg 51%
17:00 +24°C° 0 mm 6 m/s 751 mmHg 56%
18:00 +23°C° 0 mm 5 m/s 751 mmHg 64%
19:00 +21°C° 0 mm 5 m/s 751 mmHg 72%
20:00 +19°C° 0 mm 4 m/s 752 mmHg 81%
21:00 +19°C° 0 mm 4 m/s 751 mmHg 80%
22:00 +19°C° 0 mm 3 m/s 751 mmHg 80%
23:00 +18°C° 0 mm 2 m/s 751 mmHg 80%

Amanhã, 15 Junho, Terça-feira

Tempo Temperatura Precipitação Vento Pressão Humidade
00:00 +18°C° 0 mm 2 m/s 750 mmHg 81%
01:00 +18°C° 0 mm 2 m/s 750 mmHg 81%
02:00 +18°C° 0 mm 2 m/s 750 mmHg 81%
03:00 +18°C° 0 mm 2 m/s 750 mmHg 82%
04:00 +18°C° 0 mm 2 m/s 750 mmHg 83%
05:00 +18°C° 0 mm 2 m/s 750 mmHg 84%
06:00 +21°C° 0 mm 2 m/s 750 mmHg 72%
07:00 +24°C° 0 mm 2 m/s 750 mmHg 61%
08:00 +27°C° 0 mm 1 m/s 750 mmHg 49%
09:00 +28°C° 0 mm 2 m/s 750 mmHg 46%
10:00 +30°C° 0 mm 2 m/s 750 mmHg 42%
11:00 +31°C° 0 mm 3 m/s 749 mmHg 39%
12:00 +30°C° 0 mm 3 m/s 749 mmHg 40%
13:00 +30°C° 0 mm 4 m/s 749 mmHg 41%
14:00 +30°C° 0 mm 4 m/s 748 mmHg 42%
15:00 +28°C° 0 mm 4 m/s 748 mmHg 47%
16:00 +27°C° 0 mm 4 m/s 748 mmHg 52%
17:00 +25°C° 0 mm 4 m/s 747 mmHg 57%
18:00 +24°C° 0 mm 3 m/s 748 mmHg 67%
19:00 +21°C° 0 mm 2 m/s 748 mmHg 76%
20:00 +19°C° 0 mm 2 m/s 748 mmHg 85%
21:00 +18°C° 0 mm 2 m/s 748 mmHg 86%
22:00 +18°C° 0 mm 2 m/s 748 mmHg 87%
23:00 +18°C° 0 mm 2 m/s 748 mmHg 87%

Depois de amanhã, 16 Junho, Quarta-feira

Tempo Temperatura Precipitação Vento Pressão Humidade
00:00 +18°C° 0 mm 2 m/s 748 mmHg 90%
01:00 +17°C° 0 mm 3 m/s 747 mmHg 92%
02:00 +17°C° 0 mm 3 m/s 747 mmHg 94%
03:00 +17°C° 0 mm 3 m/s 747 mmHg 92%
04:00 +17°C° 0 mm 3 m/s 747 mmHg 89%
05:00 +18°C° 0 mm 3 m/s 747 mmHg 87%
06:00 +19°C° 0 mm 3 m/s 747 mmHg 80%
07:00 +20°C° 0 mm 3 m/s 748 mmHg 74%
08:00 +21°C° 0 mm 3 m/s 748 mmHg 67%
09:00 +22°C° 0 mm 4 m/s 748 mmHg 63%
10:00 +23°C° 0 mm 4 m/s 748 mmHg 59%
11:00 +25°C° 0 mm 4 m/s 748 mmHg 54%
12:00 +25°C° 0 mm 4 m/s 748 mmHg 54%
13:00 +25°C° 0 mm 5 m/s 747 mmHg 53%
14:00 +25°C° 0 mm 5 m/s 747 mmHg 53%
15:00 +23°C° 0 mm 5 m/s 747 mmHg 57%
16:00 +22°C° 0 mm 5 m/s 747 mmHg 61%
17:00 +21°C° 0 mm 5 m/s 747 mmHg 65%
18:00 +20°C° 0 mm 4 m/s 747 mmHg 71%
19:00 +19°C° 0 mm 4 m/s 747 mmHg 77%
20:00 +18°C° 0 mm 3 m/s 747 mmHg 82%
21:00 +18°C° 0 mm 3 m/s 747 mmHg 82%
22:00 +18°C° 0 mm 3 m/s 747 mmHg 81%
23:00 +18°C° 0 mm 2 m/s 747 mmHg 81%

17 Junho, Quinta-feira

Tempo Temperatura Precipitação Vento Pressão Humidade
00:00 +18°C° 0.1 mm 3 m/s 747 mmHg 84%
01:00 +18°C° 0.1 mm 3 m/s 747 mmHg 86%
02:00 +18°C° 0.1 mm 3 m/s 747 mmHg 89%
03:00 +18°C° 0.1 mm 4 m/s 747 mmHg 89%
04:00 +18°C° 0.1 mm 4 m/s 747 mmHg 89%
05:00 +17°C° 0.1 mm 5 m/s 747 mmHg 89%
06:00 +18°C° 0.1 mm 4 m/s 747 mmHg 86%
07:00 +19°C° 0.1 mm 4 m/s 748 mmHg 83%
08:00 +19°C° 0.1 mm 4 m/s 748 mmHg 79%
09:00 +20°C° 0 mm 5 m/s 748 mmHg 75%
10:00 +20°C° 0 mm 5 m/s 748 mmHg 70%
11:00 +21°C° 0 mm 6 m/s 749 mmHg 66%
12:00 +21°C° 0 mm 6 m/s 749 mmHg 65%
13:00 +21°C° 0 mm 7 m/s 749 mmHg 65%
14:00 +21°C° 0 mm 7 m/s 749 mmHg 65%
15:00 +20°C° 0 mm 7 m/s 749 mmHg 67%
16:00 +20°C° 0 mm 7 m/s 749 mmHg 69%
17:00 +18°C° 0 mm 7 m/s 749 mmHg 71%
18:00 +17°C° 0 mm 7 m/s 749 mmHg 75%
19:00 +16°C° 0 mm 7 m/s 750 mmHg 80%
20:00 +15°C° 0 mm 6 m/s 750 mmHg 84%
21:00 +15°C° 0 mm 6 m/s 750 mmHg 84%
22:00 +15°C° 0 mm 6 m/s 750 mmHg 84%
23:00 +15°C° 0 mm 6 m/s 750 mmHg 84%

18 Junho, Sexta-feira

Tempo Temperatura Precipitação Vento Pressão Humidade
00:00 +15°C° 0 mm 6 m/s 750 mmHg 85%
01:00 +14°C° 0 mm 5 m/s 749 mmHg 86%
02:00 +14°C° 0 mm 5 m/s 749 mmHg 86%
03:00 +14°C° 0 mm 5 m/s 749 mmHg 85%
04:00 +14°C° 0 mm 5 m/s 749 mmHg 84%
05:00 +15°C° 0 mm 5 m/s 749 mmHg 83%
06:00 +17°C° 0 mm 4 m/s 749 mmHg 77%
07:00 +18°C° 0 mm 4 m/s 749 mmHg 70%
08:00 +20°C° 0 mm 4 m/s 750 mmHg 64%
09:00 +20°C° 0 mm 4 m/s 750 mmHg 60%
10:00 +21°C° 0 mm 5 m/s 750 mmHg 57%
11:00 +22°C° 0 mm 5 m/s 750 mmHg 54%
12:00 +22°C° 0 mm 5 m/s 749 mmHg 55%
13:00 +22°C° 0 mm 5 m/s 749 mmHg 55%
14:00 +22°C° 0 mm 5 m/s 749 mmHg 55%
15:00 +22°C° 0 mm 5 m/s 749 mmHg 59%
16:00 +21°C° 0 mm 5 m/s 749 mmHg 63%
17:00 +20°C° 0 mm 5 m/s 749 mmHg 68%
18:00 +19°C° 0 mm 5 m/s 749 mmHg 76%
19:00 +17°C° 0 mm 5 m/s 749 mmHg 84%
20:00 +15°C° 0 mm 4 m/s 749 mmHg 92%
21:00 +15°C° 0 mm 5 m/s 749 mmHg 91%
22:00 +15°C° 0 mm 5 m/s 749 mmHg 91%
23:00 +15°C° 0 mm 5 m/s 749 mmHg 91%

19 Junho, Sábado

Tempo Temperatura Precipitação Vento Pressão Humidade
00:00 +15°C° 0 mm 5 m/s 749 mmHg 91%
01:00 +14°C° 0 mm 5 m/s 749 mmHg 91%
02:00 +14°C° 0 mm 6 m/s 749 mmHg 90%
03:00 +14°C° 0 mm 6 m/s 749 mmHg 89%
04:00 +14°C° 0 mm 5 m/s 749 mmHg 88%
05:00 +15°C° 0 mm 5 m/s 749 mmHg 86%
06:00 +15°C° 0 mm 5 m/s 749 mmHg 81%
07:00 +16°C° 0 mm 5 m/s 749 mmHg 75%
08:00 +16°C° 0 mm 5 m/s 749 mmHg 69%
09:00 +17°C° 0.1 mm 5 m/s 749 mmHg 64%
10:00 +19°C° 0.1 mm 4 m/s 749 mmHg 59%
11:00 +20°C° 0.1 mm 4 m/s 750 mmHg 54%
12:00 +20°C° 0 mm 4 m/s 749 mmHg 53%
13:00 +20°C° 0 mm 4 m/s 749 mmHg 52%
14:00 +20°C° 0 mm 4 m/s 749 mmHg 51%
15:00 +20°C° 0 mm 4 m/s 749 mmHg 54%
16:00 +19°C° 0 mm 5 m/s 749 mmHg 57%
17:00 +17°C° 0 mm 5 m/s 749 mmHg 61%
18:00 +17°C° 0.1 mm 4 m/s 749 mmHg 66%
19:00 +17°C° 0.1 mm 3 m/s 749 mmHg 71%
20:00 +16°C° 0.1 mm 2 m/s 750 mmHg 75%
21:00 +15°C° 0.9 mm 2 m/s 750 mmHg 78%
22:00 +15°C° 0.9 mm 2 m/s 750 mmHg 82%
23:00 +14°C° 0.9 mm 1 m/s 750 mmHg 85%
Mostrar mais